Regional Weather Roundup
Issued by NWS

Home | Current Version | Previous Version | Text Only | Print | Product List | Glossary On
Versions: 1 2 3 4 5 6 7 8 9 10 11 12 13 14 15 16 17 18 19 20 21 22 23 24 25 26 27 28 29 30 31 32 33 34 35 36 37 38 39 40 41 42 43 44 45 46 47 48 49 50
470
ASUS42 KTBW 030016
RWRFL
FLORIDA REGIONAL WEATHER ROUNDUP
NATIONAL WEATHER SERVICE TAMPA BAY RUSKIN FL
700 PM EST FRI DEC 02 2016

NOTE: "FAIR" INDICATES FEW OR NO CLOUDS BELOW 12,000 FEET WITH NO
SIGNIFICANT WEATHER AND/OR OBSTRUCTIONS TO VISIBILITY.

FLZ001>010-012>015-112-114-115-030100-
PANHANDLE FLORIDA

CITY           SKY/WX    TMP DP  RH WIND       PRES   REMARKS
PENSACOLA      PTCLDY    60  35  39 CALM      30.22R
PENSACOLA NAS  CLOUDY    57  36  45 N6        30.21R
MILTON NAS     CLOUDY    53  36  52 N3        30.22
CRESTVIEW      CLOUDY    58  33  39 N3        30.23R
DUKE FIELD     MOCLDY    57  34  41 N5        30.22R
VALPARAISO     CLOUDY    58  35  40 N5        30.21R
MARY ESTHER    CLEAR     55  36  50 N5        30.21R
PANAMA CITY    FAIR      54  40  59 CALM      30.19R
TYNDALL AFB    MOCLDY    58  38  47 NE3       30.20R
APALACHICOLA   PTCLDY    58  38  47 N5        30.19R

STATION/POSITION SKY/WX   TEMP    WIND        PRES    WAVE   SWELL
                          AIR SEA DIR/SP/G            HT/PER HT/PER
                          (F)     (DEG/KT/KT) (MB)    (FT/S) (FT/S)
30.1N   87.6W              66 72   50/ 14/ 19 1023.1R   3/ 5
29.2N   88.2W              68 76   70/ 17/ 21 1021.1F   5/ 6
28.8N   86.0W              66 76              1021.1    4/ 6
PANAMA CITY BEAC NOT AVBL
TOWER C                    66      30/ 15/ 17 1022.5R
28.5N   84.5W              67 75   40/ 17/ 21 1021.0R   4/ 6

$$
FLZ011-016>038-118-127-128-134-139-239-030100-
NORTH FLORIDA

CITY           SKY/WX    TMP DP  RH WIND       PRES   REMARKS
MARIANNA       PTCLDY    57  36  45 N7        30.21R
TALLAHASSEE    MOCLDY    58  38  47 N3        30.20R
PERRY          MOCLDY    56  40  54 CALM      30.18S
CROSS CITY     CLEAR     54  43  66 N3        30.18R
LAKE CITY      FAIR      50  43  76 CALM      30.19R
GAINESVILLE    CLEAR     53  41  63 CALM      30.18R
WILLISTON      CLEAR     59  39  47 CALM      30.18R
PALATKA        FAIR      48  48 100 CALM      30.18R
MAYPORT NAS    PTCLDY    60  42  51 NW3       30.18R
JACKSONVILLE   MOCLDY    52  44  74 N3        30.18R
JAX NAS        MOCLDY    62  41  46 NW6       30.18R
FERNANDINA BEA FAIR      55  43  62 CALM      30.17R
ST AUGUSTINE   CLEAR     57  48  72 NW3       30.18R
PALM COAST     FAIR     N/A N/A N/A MISG      30.17R

STATION/POSITION SKY/WX   TEMP    WIND        PRES    WAVE   SWELL
                          AIR SEA DIR/SP/G            HT/PER HT/PER
                          (F)     (DEG/KT/KT) (MB)    (FT/S) (FT/S)
SHELL POINT      NOT AVBL
KEATON BEACH               60      20/  4/  5 1021.7R
CEDAR KEY                  64      10/  3/  5 1021.2R
FERNANDINA       NOT AVBL
30.7N   81.3W                 67                N/A     2/ 8
MAYPORT          NOT AVBL
31.4N   80.9W              60 65   20/  8/ 10 1021.4F   2/ 8   2/ 8
ST AUGUSTINE               63 67   10/  9/  9 1022.6R

$$
FLZ040-043>046-052-053-057-058-063-144-030100-
INTERIOR CENTRAL FLORIDA

CITY           SKY/WX    TMP DP  RH WIND       PRES   REMARKS
OCALA          CLEAR     55  37  50 N5        30.17R
THE VILLAGES     N/A     61  45  55 CALM      30.06S
LEESBURG       CLEAR     61  41  47 N7        30.16R
SANFORD        CLEAR     59  50  72 N5        30.15R
ORLANDO EXEC   CLEAR     63  51  65 NE8       30.14R
ORLANDO INTL   PTCLDY    64  49  57 NE12      30.14R
KISSIMMEE      CLEAR     65  50  58 E9        30.15R
WINTER HAVEN   CLEAR     65  45  48 N7        30.14R
LAKELAND       CLEAR     63  43  48 N7        30.13R
BARTOW         FAIR      64  46  52 N3        30.13R
OKEECHOBEE     CLEAR     64  59  82 NE8       30.11S

$$
FLZ041-047-054-059-064-141-147-030100-
EAST CENTRAL FLORIDA

CITY           SKY/WX    TMP DP  RH WIND       PRES   REMARKS
ORMOND BEACH   CLEAR     55  48  76 CALM      30.16R
DAYTONA BEACH  CLEAR     60  43  53 N6        30.16R
DELAND         CLEAR     57  48  72 NE3       30.15S
NEW SMYRNA BEA CLEAR     63  45  51 N12       30.14R
JFK SPACE CTR  CLEAR     60  43  55 N7        30.13R
CAPE CANAVERAL CLEAR     61  48  61 N6        30.13R
PATRICK AFB    CLEAR     65  52  63 N10       30.13R
MELBOURNE      CLEAR     64  54  69 N10       30.13R
VERO BEACH     CLEAR     68  58  70 N10       30.12R
FT PIERCE      CLEAR     69  60  73 N6        30.10R
STUART         CLEAR     75  66  73 N8        30.10R

STATION/POSITION SKY/WX   TEMP    WIND        PRES    WAVE   SWELL
                          AIR SEA DIR/SP/G            HT/PER HT/PER
                          (F)     (DEG/KT/KT) (MB)    (FT/S) (FT/S)
TRIDENT PIER     NOT AVBL
28.4N   80.5W                 72                N/A     2/ 9

$$
FLZ050-056-061-142-242-148-248-149-249-151-251-155-255-
160-260-030100-
WEST CENTRAL FLORIDA

CITY           SKY/WX    TMP DP  RH WIND       PRES   REMARKS
CRYSTAL RIVER  FAIR      57  37  47 CALM      30.16R
INVERNESS      FAIR      55  43  62 CALM      30.16R
BROOKSVILLE      N/A     64  46  52 MISG        N/A
CLEARWATER AIR FAIR      63  46  55 N3        30.13R
ST PETE CLEARW CLEAR     69  45  41 N8        30.12R
TAMPA INTL     CLEAR     68  36  30 NE8       30.13R
TAMPA EXEC     CLEAR     61  39  44 N3        30.13R
PLANT CITY     CLEAR     64  43  45 NE5       30.14R
MACDILL AFB    CLEAR     64  39  39 NE6       30.11R
PETER O KNIGHT CLEAR     68  39  34 NE8       30.12S
ST PETERSBURG  CLEAR     69  50  50 NE10      30.10R
SARASOTA       CLEAR     68  46  45 NE6       30.08R
VENICE           N/A     70  50  49 NE8       30.09R

STATION/POSITION SKY/WX   TEMP    WIND        PRES    WAVE   SWELL
                          AIR SEA DIR/SP/G            HT/PER HT/PER
                          (F)     (DEG/KT/KT) (MB)    (FT/S) (FT/S)
CLEARWATER BEACH NOT AVBL
MIDDLE TAMPA BAY NOT AVBL
VENICE                     71 70   30/  7/  9 1018.3R

$$
FLZ066-069-070-075>078-162-262-165-265-030100-
SOUTHWEST FLORIDA AND KEYS

CITY           SKY/WX    TMP DP  RH WIND       PRES   REMARKS
PUNTA GORDA    CLEAR     67  52  58 NE9       30.09R
FT MYERS       CLEAR     75  58  55 NE10      30.06S
SOUTHWEST INTL CLEAR     74  58  57 NE9       30.07R
NAPLES         CLEAR     76  65  68 NE10      30.05R
MARCO ISLAND   CLEAR     75  66  73 NE8       30.05S
MARATHON       CLEAR     80  74  81 E7        30.03R
KEY WEST NAS   MOCLDY    76  73  91 NE6       30.03R
KEY WEST INTL  CLOUDY    77  75  93 NE6       30.03R

STATION/POSITION SKY/WX   TEMP    WIND        PRES    WAVE   SWELL
                          AIR SEA DIR/SP/G            HT/PER HT/PER
                          (F)     (DEG/KT/KT) (MB)    (FT/S) (FT/S)
NAPLES           NOT AVBL
26.0N   85.6W              73 77   50/ 19/ 21 1018.4R   5/ 6
DRY TORTUGAS               75      40/ 14/ 15 1017.0R
SAND KEY                   77      60/ 11/ 12 1017.2R
LONG KEY                   78 79   70/ 11/ 13 1017.2R

$$
FLZ067-068-071>074-168-172>174-030100-
SOUTHEAST FLORIDA

CITY           SKY/WX    TMP DP  RH WIND       PRES   REMARKS
W PALM BEACH   MOCLDY    75  66  73 N12       30.08R
BOCA RATON     PTCLDY    77  70  78 NE14      30.06R
FT LAUDER-EXEC PTCLDY    75  69  81 NE8       30.06R
FT LAUDERDALE  MOCLDY    77  71  82 NE8       30.04S
POMPANO BEACH  CLOUDY    77  70  79 NE13      30.06R
PEMBROKE PINES PTCLDY    77  70  79 NE9       30.06R
OPA LOCKA      CLEAR    N/A N/A N/A NE10      30.06R
MIAMI          CLOUDY    77  71  82 NE10      30.05R
WEST KENDALL   CLOUDY    78  71  79 NE12      30.05R
HOMESTEAD      PTCLDY    77  76  95 NE13      30.04R

STATION/POSITION SKY/WX   TEMP    WIND        PRES    WAVE   SWELL
                          AIR SEA DIR/SP/G            HT/PER HT/PER
                          (F)     (DEG/KT/KT) (MB)    (FT/S) (FT/S)
PORT EVERGLADES            78      30/ 10/ 16 1017.3
FOWEY ROCKS                78 78   40/ 17/ 18 1018.0R

$$





USA.gov is the U.S. government's official web portal to all federal, state and local government web resources and services.